Total_Precipitation_Accumulation
0.89 0.86 0.78 0.77 0.71 0.77 0.87 0.94 0.90 0.81 0.75 0.70 0.67 0.70 0.74 0.78 0.81 0.86 0.94 0.92 1.03 1.28 1.46 1.47 1.32 1.14 1.08 1.11 1.11 1.10 1.14 1.19 1.20 1.28 1.38 1.41 1.34 1.20 1.07 1.01 0.88 0.79 0.86
0.94 0.90 0.85 0.86 0.83 0.84 0.96 0.94 0.86 0.91 0.88 0.79 0.68 0.66 0.72 0.79 0.85 0.81 0.86 0.98 1.01 1.05 1.34 1.57 1.60 1.40 1.32 1.22 1.23 1.23 1.26 1.22 1.18 1.22 1.30 1.37 1.39 1.23 1.06 0.95 0.87 0.81 0.82
0.84 0.87 0.87 0.87 0.91 1.00 1.05 1.07 0.91 0.91 0.86 0.78 0.72 0.67 0.65 0.68 0.73 0.77 0.75 0.75 0.83 0.92 1.12 1.45 1.69 1.59 1.49 1.41 1.32 1.29 1.35 1.25 1.17 1.16 1.20 1.19 1.25 1.23 1.13 1.10 0.98 0.93 0.92
0.77 0.90 0.91 0.88 0.91 1.03 1.11 1.15 1.06 1.00 0.93 0.88 0.85 0.77 0.71 0.72 0.71 0.77 0.77 0.69 0.81 0.77 0.91 1.06 1.27 1.43 1.50 1.50 1.42 1.35 1.35 1.16 1.04 1.09 1.12 1.06 1.11 1.16 1.05 1.14 1.05 0.99 0.96
0.84 1.01 1.10 1.11 1.11 1.13 1.11 1.06 1.11 1.09 1.06 1.04 0.97 0.93 0.83 0.76 0.80 0.75 0.77 0.79 0.74 0.78 0.85 0.69 0.76 0.88 1.16 1.36 1.46 1.54 1.49 1.21 1.04 1.07 1.17 1.00 0.98 1.11 1.00 1.03 1.02 0.93 0.89
1.19 1.32 1.32 1.40 1.46 1.34 1.29 1.23 1.23 1.19 1.13 1.15 1.06 0.95 0.87 0.77 0.85 0.89 0.87 0.87 0.83 0.77 0.84 0.72 0.66 0.59 0.73 1.01 1.29 1.59 1.73 1.46 1.19 1.11 1.21 1.09 0.96 1.04 0.96 0.97 1.02 0.86 0.80
1.52 1.72 1.69 1.73 1.76 1.63 1.58 1.64 1.82 1.77 1.51 1.28 1.29 1.12 0.94 0.78 0.90 0.94 0.92 0.94 0.94 1.01 1.06 0.93 0.76 0.70 0.60 0.64 0.79 1.24 1.78 1.63 1.43 1.27 1.26 1.19 0.99 0.94 0.88 0.89 1.01 0.89 0.76
1.44 1.57 1.83 1.92 1.84 1.85 1.97 1.99 2.30 2.43 2.01 1.59 1.58 1.69 1.42 1.20 0.95 0.81 0.87 0.90 0.98 1.17 1.18 0.98 0.86 0.74 0.68 0.70 0.49 0.73 1.31 1.48 1.49 1.49 1.41 1.30 1.14 0.97 0.91 0.84 0.86 0.90 0.79
1.41 1.51 1.67 1.82 1.83 1.89 1.98 2.10 2.41 2.85 2.61 2.09 1.85 2.03 1.72 1.53 1.35 0.99 0.84 0.87 0.97 1.16 1.26 1.18 1.10 0.99 0.83 0.84 0.73 0.64 0.78 0.91 1.26 1.60 1.63 1.47 1.32 1.08 0.94 0.94 0.84 0.92 0.84
1.30 1.37 1.51 1.65 1.77 1.79 1.92 2.02 2.13 2.58 2.89 2.58 2.28 1.95 1.62 1.55 1.64 1.44 1.07 0.97 1.01 1.08 1.17 1.13 1.12 1.20 1.10 1.01 0.91 0.73 0.68 0.62 0.93 1.44 1.76 1.74 1.54 1.34 1.18 1.11 0.98 0.98 0.93
1.40 1.39 1.53 1.61 1.63 1.68 1.78 2.11 2.36 2.61 2.79 2.72 2.61 2.44 2.19 1.88 1.53 1.63 1.56 1.28 1.16 1.10 1.12 1.16 1.17 1.19 1.18 1.16 1.23 0.95 0.72 0.62 0.67 1.09 1.65 1.97 1.88 1.68 1.46 1.29 1.13 1.12 1.11
1.49 1.54 1.60 1.60 1.58 1.61 1.72 1.94 2.21 2.42 2.73 2.89 2.77 2.55 2.40 2.25 2.01 1.87 1.65 1.54 1.48 1.25 1.19 1.21 1.15 1.18 1.25 1.34 1.33 1.30 0.90 0.63 0.55 0.71 1.11 1.60 1.88 1.88 1.76 1.59 1.38 1.32 1.35
1.38 1.42 1.53 1.65 1.73 1.75 1.87 2.04 2.18 2.09 2.30 2.67 2.65 2.50 2.39 2.16 2.13 2.16 1.98 1.69 1.53 1.25 1.17 1.15 1.10 1.21 1.22 1.23 1.44 1.63 1.12 0.78 0.59 0.63 0.73 0.97 1.30 1.62 1.86 1.91 1.78 1.67 1.64
1.34 1.28 1.33 1.44 1.58 1.74 1.79 1.84 1.85 1.82 1.94 2.19 2.27 2.43 2.52 2.26 2.11 1.97 1.87 1.89 1.67 1.43 1.26 1.14 1.06 1.08 1.12 1.17 1.39 1.57 1.16 0.95 0.70 0.61 0.61 0.72 0.85 1.02 1.30 1.58 1.83 1.90 1.92
1.11 1.03 1.04 1.08 1.16 1.25 1.32 1.48 1.56 1.67 1.71 1.83 1.99 2.12 2.26 2.34 2.25 2.00 1.91 1.88 1.84 1.66 1.45 1.34 1.20 1.02 1.12 1.22 1.43 1.26 1.13 1.10 0.91 0.72 0.63 0.64 0.70 0.74 0.84 0.92 1.09 1.32 1.58
1.03 0.96 0.92 0.87 0.84 0.83 0.87 1.05 1.24 1.35 1.46 1.62 1.81 1.93 1.95 2.00 2.18 2.13 1.95 1.92 1.83 1.70 1.56 1.38 1.29 1.16 1.32 1.23 1.37 1.19 1.21 1.30 0.98 0.80 0.70 0.66 0.64 0.59 0.58 0.59 0.59 0.64 0.76
1.01 1.00 0.91 0.84 0.91 0.91 0.88 0.94 1.00 1.04 1.11 1.25 1.40 1.53 1.69 1.93 2.21 2.24 2.18 2.06 1.92 1.77 1.53 1.39 1.19 1.12 1.42 1.50 1.41 1.27 1.24 1.23 1.01 0.89 0.75 0.67 0.65 0.61 0.57 0.52 0.51 0.49 0.52
0.68 0.78 0.86 0.81 0.80 0.83 0.85 0.92 0.93 0.96 0.97 1.05 1.15 1.27 1.44 1.74 2.08 2.29 2.37 2.28 2.12 1.96 1.81 1.65 1.32 1.08 1.20 1.54 1.68 1.60 1.37 1.20 1.09 1.02 0.89 0.76 0.71 0.65 0.60 0.58 0.56 0.54 0.50
0.52 0.57 0.66 0.67 0.76 0.83 0.85 0.88 0.89 0.92 0.94 1.02 1.16 1.21 1.27 1.47 1.66 1.87 2.06 2.18 2.17 2.14 2.09 1.85 1.55 1.29 1.23 1.36 1.62 1.64 1.55 1.50 1.29 1.22 1.21 1.09 0.95 0.85 0.74 0.65 0.64 0.60 0.54
0.54 0.61 0.73 0.77 0.73 0.70 0.75 0.86 0.90 0.85 0.83 0.88 0.96 1.05 1.15 1.20 1.35 1.50 1.60 1.79 2.00 2.23 2.29 2.14 1.89 1.56 1.44 1.33 1.44 1.60 1.67 1.62 1.53 1.34 1.30 1.20 1.18 1.12 1.00 0.84 0.70 0.64 0.63
0.61 0.63 0.72 0.83 0.90 0.84 0.82 0.90 0.87 0.85 0.85 0.83 0.88 0.88 0.95 0.97 1.03 1.22 1.26 1.48 1.80 2.06 2.17 2.23 2.11 1.81 1.55 1.38 1.18 1.28 1.54 1.75 1.75 1.65 1.65 1.42 1.29 1.16 1.07 1.03 0.96 0.83 0.73
0.50 0.49 0.53 0.60 0.69 0.73 0.94 0.90 0.74 0.70 0.76 0.82 0.87 0.87 0.89 0.83 0.81 0.88 1.01 1.14 1.43 1.64 1.77 1.84 1.87 1.72 1.51 1.38 1.33 1.30 1.37 1.51 1.56 1.44 1.47 1.55 1.50 1.36 1.26 1.14 1.16 1.19 1.11
0.42 0.39 0.38 0.39 0.45 0.60 0.68 0.53 0.51 0.58 0.71 0.83 0.90 0.92 0.89 0.84 0.88 0.89 0.91 0.92 0.99 1.17 1.38 1.57 1.60 1.50 1.56 1.47 1.39 1.29 1.31 1.33 1.31 1.41 1.47 1.52 1.51 1.42 1.35 1.34 1.37 1.27 1.22
0.31 0.30 0.38 0.45 0.46 0.48 0.54 0.44 0.44 0.54 0.74 0.87 0.88 0.83 0.89 0.91 0.94 1.00 0.93 1.00 0.95 0.94 1.02 1.07 1.21 1.41 1.55 1.72 1.69 1.58 1.59 1.53 1.44 1.53 1.55 1.49 1.39 1.32 1.23 1.21 1.27 1.15 1.08
0.35 0.38 0.49 0.56 0.50 0.43 0.47 0.48 0.54 0.69 0.81 0.89 0.86 0.85 0.93 0.97 1.10 1.15 1.06 1.11 1.07 1.03 1.00 1.11 1.20 1.30 1.38 1.50 1.65 1.69 1.65 1.61 1.48 1.41 1.42 1.36 1.26 1.28 1.27 1.15 1.08 1.08 0.98
0.32 0.39 0.41 0.39 0.39 0.46 0.52 0.51 0.64 0.82 0.94 1.04 0.99 0.99 1.17 1.12 1.10 1.05 1.03 1.17 1.14 0.99 0.92 0.96 1.01 1.09 1.12 1.22 1.35 1.39 1.52 1.58 1.50 1.36 1.19 1.17 1.18 1.21 1.26 1.15 1.04 0.97 0.93